Location: Allos
(44.2333°N, 6.6333°E)
Time: 04:24:28
(UTC+00:00)

SAR-Lupe-4 - Pass Details

Date: 01 December 2020
Orbit: 481 x 484 km, 98.2° (Epoch: 09 January)

Event Time Altitude Azimuth Distance (km) Brightness Sun altitude
Exits shadow 17:29:13 34° 54° (NE) 826 4.2 -16.2°
Maximum altitude 17:30:17 45° 100° (E) 676 3.8 -16.4°
Drops below altitude 10° 17:33:43 10° 174° (S) 1,662 6.4 -17.0°
Sets 17:35:50 0° 181° (S) 2,537 7.4 -17.4°
